Tracking 31027 objects as of 19-Jul-2025
HD Live streaming from Space Station
objects crossing your sky now

NINGXIA-1 5

Track NINGXIA-1 5 now!
10-day predictions


NORAD ID: 44783
Int'l Code: 2019-076E
Perigee: 886.4 km
Apogee: 902.0 km
Inclination: 45.0 °
Period: 102.7 minutes
Semi major axis: 7265 km
RCS: Unknown
Launch date: November 13, 2019
Source: People's Republic of China (PRC)
Launch site: Taiyaun Space Center, China (TSC)
Your satellite tracking list
NUSAT-20 (GRACE)
Track 1 satellite(s)




NASA's NSSDC Master Catalog

Two Line Element Set (TLE):
1 44783U 19076E   25199.76985897 -.00000119  00000-0  72978-5 0  9994
2 44783  45.0048 229.0871 0010691   0.0616   0.0218 14.01951230291074
Source of the keplerian elements: AFSPC